SL-14 DEB, 45294

Orbit data source: Space-Track

SL-14 DEB, 45294 is space debris in LEO originally from a launch on Thu, 15 Aug 1991 UTC launched from the Plesetsk Missile And Space Complex (PKMTR). Debris objects in space refer to the collection of defunct objects orbiting the Earth. Examples of debris include non-operational satellites, rocket bodies, and fragments generated from explosions, collisions, or faulty payload assembly.

Loading next visibility...
Identifier
45294, 1991-056AG
Orbit
LEO
Country
Flag of CISCIS
Related business
Manufacturer
Unknown
Mission
Spacecraft
Bus & Motor
Unknown
Mass
Unknown
Launch date (UTC)
1991-08-15 (35 years ago)
Launch vehicle
Unknown
Launch site
Plesetsk Missile And Space Complex (PKMTR)
Object type
Payload
Rocket body
Debris
Shape & HBR
Unknown shape, 0.1 m
Radar Cross Section
Small (<0.1 m²)

Expand to show TLE details & history
Last TLE update: 15 hours ago

TLE from 15 hours ago
0 SL-14 DEB
1 45294U 91056AG  26062.39238812  .00001060  00000-0  25529-2 0  9999
2 45294  82.5680 211.3277 0005239 335.9003  24.1876 13.21393180289794
Epoch: 2026-03-03T09:25Z
TLE epoch observation values (Epoch: 2026-03-03T09:25:02.333Z)
Latitude
-0.00003°
Longitude
-91.10413°
Altitude
1,178.605 km
Speed
7.266 km/s
True Right ascension
14h 05m 18s
True Declination
0° 00' 00"
Sunlit
Object was in full shadow at epoch
Visualization orbit readout
Latitude
Unknown
Longitude
Unknown
Altitude
Unknown
Speed
Unknown
Apparent Right ascension
Unknown
Apparent Declination
Unknown
Sunlit
N/A
Visualization observer readout
Local Sidereal Time
04:02:56
Azimuth
Unknown
Elevation
Unknown
Doppler factor
Unknown
Orbital elements
Apogee altitude
1,180.599 km
Perigee altitude
1,172.683 km
Semi-major axis
7,554.778 km
Eccentricity
0.00052
Inclination
82.568°
RAAN
211.3277°
Arg. of periapsis
335.9003°
True anomaly
24.21221°
Mean anomaly
24.1876°
Eccentric anomaly
24.1999°
Mean motion
3.3053 °/min
Orbital period
108.92 mins
BSTAR
0.0025529
Loading maneuver chart data...
Computing Atmospheric mass density...
Loading historical data...
Loading historical data...
Loading historical data...
Loading historical data...
Loading historical data...
Loading historical data...
Loading historical data...

Documentation

Showing up to 5 results
|